Weather History for Greensboro, NC

Change the Weather History Date:

Sunday, January 6, 2013

  Actual Average Record
Temperature  
Mean Temperature 45 °F 39 °F  
Max Temperature 52 °F 48 °F 71 °F (1907)
Min Temperature 37 °F 29 °F 5 °F (1924)
Degree Days  
Heating Degree Days 20 26  
Month to date heating degree days 147 156  
Since 1 July heating degree days 1481 1570  
Cooling Degree Days 0 0  
Month to date cooling degree days 0 0  
Year to date cooling degree days 0 0  
Moisture  
Dew Point 32 °F    
Average Humidity 71    
Maximum Humidity 92    
Minimum Humidity 50    
Precipitation  
Precipitation 0.01 in 0.10 in 2.44 in (1962)
Month to date precipitation 0.43 0.58  
Year to date precipitation 0.43 0.58  
Snow  
Snow 0.00 in 0.10 in 6.00 in (1996)
Month to date snowfall 0.0 0.5  
Since 1 July snowfall 0.0 1.4  
Snow Depth 0.00 in    
Sea Level Pressure  
Sea Level Pressure 30.13 in    
Wind  
Wind Speed 3 mph (SW)    
Max Wind Speed 12 mph    
Max Gust Speed 16 mph    
Visibility 10 miles    
Events Rain    
T = Trace of Precipitation, MM = Missing Value Source: NWS Daily Summary

Daily Weather History Graph

Daily Weather History Graph

Search for Another Location

Airport:

Trip Planner

Search our weather history database for the weather conditions in past years. The results will help you decide how hot, cold, wet, or windy it might be!

Date:

Astronomy

Jan. 06, 2013 Rise Set
Actual Time 7:31 AM EST 5:20 PM EST
Civil Twilight 7:02 AM EST 5:48 PM EST
Nautical Twilight 6:30 AM EST 6:20 PM EST
Astronomical Twilight 5:59 AM EST 6:51 PM EST
Moon 1:47 AM EST (1/6) 12:43 PM EST (1/6)
Length of Visible Light 10h 46m
Length of Day
9h 49m
Waning Crescent, 33% of the Moon is Illuminated
Jan 6
Waning Crescent
Jan 11
New
Jan 18
First Quarter
Jan 26
Full
Feb 3
Last Quarter

Hourly Weather History & Observations

Time (EST) Temp. Windchill Dew Point Humidity Pressure Visibility Wind Dir Wind Speed Gust Speed Precip Events Conditions
12:54 AM 41.0 °F 38.0 °F 28.9 °F 62% 30.19 in 10.0 mi SW 4.6 mph - 0.00 in   Overcast
1:54 AM 39.9 °F - 30.9 °F 70% 30.21 in 9.0 mi Calm Calm - 0.00 in Rain Light Rain
2:54 AM 39.0 °F 34.8 °F 33.1 °F 79% 30.20 in 10.0 mi South 5.8 mph - 0.01 in Rain Light Rain
3:54 AM 39.0 °F 33.4 °F 33.1 °F 79% 30.17 in 9.0 mi SSW 8.1 mph - 0.00 in Rain Light Rain
4:54 AM 39.0 °F 34.0 °F 33.1 °F 79% 30.16 in 10.0 mi SW 6.9 mph - 0.00 in   Overcast
5:54 AM 37.9 °F 35.5 °F 33.1 °F 83% 30.16 in 10.0 mi SW 3.5 mph - N/A   Clear
6:54 AM 39.0 °F - 33.1 °F 79% 30.16 in 10.0 mi Calm Calm - N/A   Mostly Cloudy
7:54 AM 37.9 °F 35.5 °F 35.1 °F 89% 30.17 in 10.0 mi SSW 3.5 mph - N/A   Overcast
8:54 AM 39.9 °F 37.8 °F 35.1 °F 83% 30.17 in 10.0 mi SSW 3.5 mph - N/A   Overcast
9:54 AM 41.0 °F - 34.0 °F 76% 30.17 in 10.0 mi Calm Calm - N/A   Overcast
10:54 AM 43.0 °F 40.3 °F 35.1 °F 74% 30.17 in 10.0 mi South 4.6 mph - N/A   Overcast
11:54 AM 46.0 °F - 34.0 °F 63% 30.13 in 10.0 mi Calm Calm - N/A   Overcast
12:54 PM 48.9 °F - 33.1 °F 54% 30.09 in 10.0 mi Calm Calm - N/A   Overcast
1:54 PM 50.0 °F - 33.1 °F 52% 30.06 in 10.0 mi Variable 5.8 mph - N/A   Scattered Clouds
2:54 PM 51.1 °F - 34.0 °F 52% 30.04 in 10.0 mi Calm Calm - N/A   Partly Cloudy
3:54 PM 50.0 °F - 33.1 °F 52% 30.04 in 10.0 mi SSW 4.6 mph - N/A   Scattered Clouds
4:54 PM 50.0 °F - 33.1 °F 52% 30.05 in 10.0 mi Calm Calm - N/A   Clear
5:54 PM 44.1 °F 40.8 °F 33.1 °F 65% 30.06 in 10.0 mi South 5.8 mph - N/A   Partly Cloudy
6:54 PM 43.0 °F 40.3 °F 33.1 °F 68% 30.09 in 10.0 mi SSW 4.6 mph - N/A   Partly Cloudy
7:54 PM 45.0 °F 42.6 °F 34.0 °F 65% 30.12 in 10.0 mi NNE 4.6 mph - N/A   Mostly Cloudy
8:54 PM 44.1 °F 40.8 °F 28.9 °F 55% 30.14 in 10.0 mi NNW 5.8 mph - N/A   Mostly Cloudy
9:54 PM 44.1 °F 41.5 °F 28.0 °F 53% 30.15 in 10.0 mi NNW 4.6 mph - N/A   Mostly Cloudy
10:54 PM 42.1 °F - 28.0 °F 58% 30.17 in 10.0 mi Calm Calm - N/A   Mostly Cloudy
11:54 PM 39.9 °F 35.8 °F 28.0 °F 63% 30.19 in 10.0 mi NW 5.8 mph - N/A   Partly Cloudy